Tracking 18980 objects as of 18-Feb-2018
HD Live streaming from Space Station
objects crossing your sky now

FENGYUN 1C DEB

Track FENGYUN 1C DEB now!
10-day predictions


NORAD ID: 36994
Int'l Code: 1999-025ECA
Perigee: 851.5 km
Apogee: 1,021.2 km
Inclination: 98.7 °
Period: 103.6 minutes
Semi major axis: 7307 km
RCS: 0.0026 m2 (small)
Launch date: May 10, 1999
Source: People's Republic of China (PRC)
Launch site: Taiyaun Space Center, China (TSC)

Note: This is SATELLITE DEBRIS
aabbcc
Your satellite tracking list
Your tracking list is empty




NASA's NSSDC Master Catalog

Two Line Element Set (TLE):
1 36994U 99025ECA 18047.13742266  .00000012  00000-0  40886-4 0  9990
2 36994  98.6969 170.1310 0116123 217.8255 141.4703 13.89831574414409
Source of the keplerian elements: AFSPC